Weather History for Dryden, TX

Change the Weather History Date:

Saturday, June 22, 2013

  Actual Average (KFST) Record (KFST)
Temperature  
Mean Temperature 88 °F -  
Max Temperature 99 °F 92 °F 102 °F (1998)
Min Temperature 78 °F 68 °F 64 °F (2005)
Cooling Degree Days 23    
Growing Degree Days 38 (Base 50)    
Moisture  
Dew Point 61 °F    
Average Humidity 41    
Maximum Humidity 62    
Minimum Humidity 29    
Precipitation  
Precipitation 0.00 in - - ()
Sea Level Pressure  
Sea Level Pressure 29.81 in    
Wind  
Wind Speed 14 mph (ESE)    
Max Wind Speed 21 mph    
Max Gust Speed 28 mph    
Averages and records for this station are not official NWS values.
T = Trace of Precipitation, MM = Missing Value Source: NWS Daily Summary

Daily Weather History Graph

Daily Weather History Graph

Search for Another Location

Airport:

Trip Planner

Search our weather history database for the weather conditions in past years. The results will help you decide how hot, cold, wet, or windy it might be!

Date:

Astronomy

Jun. 22, 2013 Rise Set
Actual Time 6:48 AM CDT 8:53 PM CDT
Civil Twilight 6:20 AM CDT 9:20 PM CDT
Nautical Twilight 5:47 AM CDT 9:54 PM CDT
Astronomical Twilight 5:11 AM CDT 10:30 PM CDT
Moon 8:14 PM CDT 5:59 AM CDT
Length of Visible Light 14h 59m
Length of Day
14h 04m
Waxing Gibbous, 99% of the Moon is Illuminated
Jun 22
Waxing Gibbous
Jun 23
Full
Jun 29
Last Quarter
Jul 8
New
Jul 15
First Quarter

Hourly Weather History & Observations

Time (CDT) Temp. Heat Index Dew Point Humidity Pressure Visibility Wind Dir Wind Speed Gust Speed Precip Events Conditions
12:53 AM 84.9 °F 83.7 °F 55.9 °F 37% 29.86 in - ESE 12.7 mph - N/A   Unknown
1:53 AM 84.9 °F 83.7 °F 55.9 °F 37% 29.83 in - ESE 13.8 mph 20.7 mph N/A   Unknown
2:53 AM 84.0 °F 83.5 °F 57.9 °F 41% 29.81 in - ESE 13.8 mph - N/A   Unknown
3:53 AM 81.0 °F 81.1 °F 57.9 °F 45% 29.80 in - ESE 13.8 mph 19.6 mph N/A   Unknown
4:53 AM 80.1 °F 80.9 °F 60.1 °F 50% 29.81 in - East 10.4 mph - N/A   Unknown
5:53 AM 78.1 °F - 62.1 °F 58% 29.82 in - ESE 11.5 mph - N/A   Unknown
6:53 AM 78.1 °F - 63.0 °F 60% 29.84 in - ESE 11.5 mph - N/A   Unknown
7:53 AM 79.0 °F - 64.9 °F 62% 29.86 in - ESE 8.1 mph - N/A   Unknown
8:53 AM 81.0 °F 83.0 °F 66.0 °F 60% 29.87 in - SE 13.8 mph - N/A   Unknown
9:53 AM 84.0 °F 86.5 °F 66.9 °F 56% 29.88 in - ESE 12.7 mph - N/A   Unknown
10:53 AM 89.1 °F 92.1 °F 66.9 °F 48% 29.86 in - SE 10.4 mph 18.4 mph N/A   Unknown
11:53 AM 90.0 °F 92.4 °F 66.0 °F 45% 29.86 in - ESE 12.7 mph 19.6 mph N/A   Unknown
12:53 PM 93.9 °F 96.1 °F 64.9 °F 38% 29.84 in - East 17.3 mph 21.9 mph N/A   Unknown
1:53 PM 95.0 °F 97.0 °F 64.0 °F 36% 29.82 in - ESE 16.1 mph 23.0 mph N/A   Unknown
2:53 PM 98.1 °F 99.6 °F 63.0 °F 31% 29.80 in - ESE 18.4 mph 25.3 mph N/A   Unknown
3:53 PM 98.1 °F 99.1 °F 62.1 °F 30% 29.78 in - SE 20.7 mph 27.6 mph N/A   Unknown
4:53 PM 98.1 °F 99.1 °F 62.1 °F 30% 29.76 in - East 17.3 mph 27.6 mph N/A   Unknown
5:53 PM 98.1 °F 98.6 °F 61.0 °F 29% 29.74 in - ESE 20.7 mph 27.6 mph N/A   Unknown
6:53 PM 93.9 °F 94.0 °F 61.0 °F 33% 29.75 in - ESE 19.6 mph 26.5 mph N/A   Unknown
7:53 PM 91.9 °F 91.2 °F 59.0 °F 33% 29.75 in - ESE 20.7 mph 27.6 mph N/A   Unknown
8:53 PM 90.0 °F 88.8 °F 57.9 °F 34% 29.77 in - ESE 16.1 mph 27.6 mph N/A   Unknown
9:53 PM 88.0 °F 86.5 °F 55.9 °F 34% 29.78 in - East 13.8 mph 25.3 mph N/A   Unknown
10:53 PM 88.0 °F 86.1 °F 55.0 °F 32% 29.79 in - ESE 15.0 mph 26.5 mph N/A   Unknown
11:53 PM 87.1 °F 85.1 °F 54.0 °F 32% 29.79 in - ESE 15.0 mph 21.9 mph N/A   Unknown